Hourly Data Report for March 31, 2017

All times are specified in Local Standard Time (LST). Add 1 hour to adjust for Daylight Saving Time where and when it is observed.

TORONTO CITY
ONTARIO

43°40'00.000" N
79°24'00.000" W
112.50 m
6158355
71508
XTO

Download Data

Hourly Data (March 2017)
Hourly Data Report for March 31, 2017
TIME Temp Definition
°C
Dew Point Definition
°C
Rel Hum Definition
%
Wind Dir Definition
10's deg

Wind Spd Definition
km/h
Visibility Definition
km
Stn Press Definition
kPa
Hmdx Definition


Wind Chill Definition


Weather Definition


00:00 1.7 0.7 93 LegendMM LegendMM   99.96     LegendNANA
01:00 1.8 0.8 93 LegendMM LegendMM   99.64     LegendNANA
02:00 2.2 1.2 93 LegendMM LegendMM   99.74     LegendNANA
03:00 2.5 1.5 93 LegendMM LegendMM   99.62     LegendNANA
04:00 2.7 1.6 93 LegendMM LegendMM   99.55     LegendNANA
05:00 2.7 1.8 93 LegendMM LegendMM   99.50     LegendNANA
06:00 2.7 1.8 94 LegendMM LegendMM   99.48     LegendNANA
07:00 2.8 1.9 94 LegendMM LegendMM   99.46     LegendNANA
08:00 2.9 2.1 95 LegendMM LegendMM   99.44     LegendNANA
09:00 3.1 2.3 95 LegendMM LegendMM   99.43     LegendNANA
10:00 3.1 2.2 94 LegendMM LegendMM   99.40     LegendNANA
11:00 3.2 2.3 94 LegendMM LegendMM   99.36     LegendNANA
12:00 3.3 2.4 94 LegendMM LegendMM   99.32     LegendNANA
13:00 3.4 2.4 93 LegendMM LegendMM   99.31     LegendNANA
14:00 3.5 2.4 92 LegendMM LegendMM   99.29     LegendNANA
15:00 3.5 2.4 92 LegendMM LegendMM   99.27     LegendNANA
16:00 3.6 2.3 91 LegendMM LegendMM   99.29     LegendNANA
17:00 3.8 2.3 90 LegendMM LegendMM   99.32     LegendNANA
18:00 4.0 2.5 90 LegendMM LegendMM   99.39     LegendNANA
19:00 3.4 2.2 92 LegendMM LegendMM   99.42     LegendNANA
20:00 2.9 1.5 91 LegendMM LegendMM   99.49     LegendNANA
21:00 2.7 1.3 90 LegendMM LegendMM   99.53     LegendNANA
22:00 2.7 1.1 90 LegendMM LegendMM   99.56     LegendNANA
23:00 2.8 1.6 92 LegendMM LegendMM   99.59     LegendNANA

Notes on Data Quality.

Legend

  • E = Estimated
  • M = Missing
  • NA = Not Available
Date modified: